Location: Audinghen
(50.8518°N, 1.6129°E)
Time: 23:59:10
(UTC+00:00)

AQUA - Pass Details

Date: 07 August 2020
Orbit: 700 x 704 km, 98.2° (Epoch: 23 September)

Event Time Altitude Azimuth Distance (km) Brightness Sun altitude
Rises 02:14:41 0° 12° (NNE) 3,107 8.5 -16.6°
Reaches altitude 10° 02:16:57 10° 11° (N) 2,183 7.4 -16.4°
Maximum altitude 02:21:43 73° 288° (WNW) 741 3.8 -16.0°
Enters shadow 02:24:22 26° 208° (SSW) 1,360 4.7 -15.7°
